Location: Hokitika
(42.7170°S, 170.9670°E)
Time: 12:46:53
(UTC+13:00)

Daily predictions for brighter satellites

Satellite Brightness Start Highest point End
(mag) Time Altitude Azimuth Time Altitude Azimuth Time Altitude Azimuth
USA 32 4.1 21:33:52 10° N 21:39:07 76° E 21:44:27 10° S
Cosmos 2227 4.3 21:33:37 10° SSW 21:39:21 69° ESE 21:44:59 10° NNE
Meteor 2-10 Rocket 3.6 21:35:43 10° N 21:40:51 88° E 21:46:15 10° S
Resurs 01 Rocket 3.2 21:38:52 10° SE 21:41:53 17° E 21:44:51 10° NE
Cosmos 292 Rocket 3.9 21:37:28 10° SSW 21:42:18 79° WNW 21:47:06 10° NNE
Cosmos 2263 Rocket 2.8 21:38:01 10° SSW 21:43:26 44° ESE 21:48:50 10° NE
Cosmos 1850 Rocket 4.1 21:38:29 10° NNW 21:43:43 85° WSW 21:49:00 10° SSE
Aureole 3 Rocket 2.9 21:44:05 10° S 21:47:30 59° E 21:51:49 10° NNE
BREEZE-M DEB (TANK) 4.5 21:35:59 10° NW 21:54:00 73° NNE 21:58:15 10° ESE
CZ-2C R/B 3.1 21:49:16 10° NE 21:54:29 45° ESE 21:59:36 10° S
Cosmos 1151 Rocket 3.1 21:51:44 10° N 21:55:56 56° E 22:00:14 10° SSE
USA 234 4.4 21:50:05 10° SE 21:56:21 47° SSW 22:02:35 10° W
Cosmos 2208 Rocket 4.0 21:58:09 10° SSW 22:03:26 84° ESE 22:08:42 10° NNE
Cosmos 2315 Rocket 4.1 21:58:25 10° S 22:04:50 73° E 22:11:06 10° NNE
SPOT 3 Rocket 3.7 21:59:36 10° SSE 22:04:53 86° WSW 22:10:05 10° NNW
CZ-4C R/B 4.3 22:03:31 10° SSW 22:07:24 17° SSE 22:10:57 10° ESE
H-2A R/B 3.9 22:09:08 10° N 22:12:14 17° NE 22:19:11 10° ENE
Cosmos 1633 Rocket 4.0 22:10:42 10° SSW 22:14:58 49° W 22:19:13 10° NNW
Cosmos 540 Rocket 4.3 22:10:33 10° S 22:15:25 38° ESE 22:19:09 16° NE
ATLAS 3B R/B 4.2 22:18:33 13° ENE 22:19:45 14° ENE 22:23:01 10° ESE
BREEZE-M DEB (TANK) 1.6 22:23:04 10° WNW 22:27:43 81° NNE 22:29:45 12° ESE
Cosmos 1862 3.3 22:23:47 10° S 22:27:53 81° E 22:31:06 16° N
Cosmos 1763 Rocket 3.7 22:24:38 10° SSW 22:29:54 73° WNW 22:34:29 13° N
Atlas Centaur 2 3.8 22:23:59 10° NW 22:31:21 34° N 22:36:40 18° ENE
SJ-6B 4.0 22:29:48 10° S 22:33:27 44° WSW 22:37:04 10° NW
Cosmos 1869 Rocket 4.3 22:30:17 10° S 22:34:23 36° ESE 22:36:30 22° NE
ERBS 3.7 22:31:44 10° SSW 22:34:57 31° SE 22:37:00 18° E
Meteor 2-13 Rocket 4.4 22:30:14 10° N 22:36:18 83° E 22:42:30 10° S
Cosmos 724 4.4 22:30:42 10° NW 22:36:37 78° WSW 22:42:28 10° SSE
H-2A R/B 2.2 22:37:21 10° SSE 22:42:18 48° E 22:45:39 19° NNE
Cosmos 1486 Rocket 4.1 22:37:43 10° N 22:42:50 58° ENE 22:48:02 10° SSE
SL-08 R/B 4.5 22:39:25 12° N 22:45:00 64° E 22:51:10 10° SSE
SL-16 R/B 2.6 22:39:52 10° NW 22:45:32 66° WSW 22:51:15 10° SSE
Mayak 0.4 22:46:27 17° E 22:47:50 20° ESE 22:50:57 10° SSE
Cosmos 1933 Rocket 4.3 22:44:14 10° SSW 22:48:34 52° W 22:52:27 12° NNW
Cosmos 2360 Rocket 2.2 22:45:26 10° N 22:51:01 60° ENE 22:56:39 10° SSE
Lacrosse 5 rocket 3.8 22:51:06 10° S 22:52:48 12° SSE 22:54:28 10° SE
Cosmos 2228 Rocket 4.1 22:52:24 10° NNW 22:56:40 46° WSW 23:01:01 10° S
Cosmos 1707 Rocket 4.0 22:55:32 31° NE 22:56:57 41° E 23:01:06 10° SSE
Lacrosse 5 3.7 22:54:02 10° WSW 22:57:53 21° WNW 23:01:12 12° NNW
Cosmos 1242 Rocket 3.2 22:55:03 10° SSW 22:58:45 54° W 23:00:52 23° NNW
Cosmos 1844 Rocket 3.5 22:54:32 10° SSW 22:59:52 40° ESE 23:02:38 24° ENE
Cosmos 841 Rocket 3.9 22:55:29 10° SSW 23:00:45 61° WNW 23:04:12 21° N
Cosmos 1933 3.3 22:58:17 22° N 23:00:53 87° E 23:05:05 10° S
Helios 1B rocket 2.6 23:00:45 35° NE 23:02:16 58° ESE 23:06:24 10° S
COSMOS 2428 3.6 23:03:03 27° ENE 23:03:59 28° ENE 23:08:47 10° SE
Cosmos 2322 Rocket 3.1 22:59:20 10° NW 23:04:51 51° WSW 23:10:28 10° SSE
Cosmos 1745 Rocket 4.0 23:05:15 19° N 23:10:03 77° E 23:16:28 10° S
Cosmos 968 Rocket 4.0 23:08:48 33° NE 23:10:08 39° ENE 23:15:00 10° SE
ADEOS Rocket 3.6 23:05:50 13° N 23:10:37 46° W 23:15:58 10° SSW
Cosmos 1386 Rocket 4.4 23:09:16 24° N 23:13:09 69° E 23:19:15 10° SSE
Terra 3.7 23:14:35 10° SE 23:16:50 15° E 23:16:50 15° E
Cosmos 1709 Rocket 4.4 23:15:10 31° NE 23:17:39 45° E 23:23:36 10° SSE
Cosmos 1633 3.2 23:14:24 10° SSW 23:17:57 50° W 23:19:15 32° NNW
Resurs 01 Rocket 2.7 23:14:18 10° S 23:18:36 46° WSW 23:22:50 10° NW
ARGOS 3.3 23:13:26 10° S 23:18:52 75° WSW 23:23:31 14° NNW
Spot 2 Rocket 3.6 23:16:16 10° S 23:21:28 79° WSW 23:25:12 19° NNW
Cosmos 2322 3.6 23:18:11 20° N 23:22:11 71° ENE 23:27:53 10° SSE
Meteor 1-25 Rocket 4.3 23:17:33 10° S 23:23:28 73° E 23:25:56 36° NNE
MetOp-B 4.1 23:18:04 10° SSE 23:23:31 69° ENE 23:25:59 33° N
Cosmos 1606 2.6 23:25:39 57° NNE 23:26:22 77° E 23:30:21 10° S
Meteor 2-8 Rocket 4.5 23:20:52 10° S 23:27:00 80° W 23:30:15 30° N
Cosmos 2263 Rocket 3.7 23:22:21 10° SW 23:27:08 28° WNW 23:30:54 14° NNW
CENTAUR R/B 4.0 23:28:51 23° ENE 23:28:51 23° ENE 23:34:10 10° ESE
Timation 1 Rocket 4.4 23:23:06 10° SSW 23:29:09 72° WNW 23:31:47 35° N
CZ-2C R/B 4.5 23:30:29 10° NNW 23:34:55 25° W 23:39:19 10° SW
Cosmos 2333 Rocket 2.7 23:35:00 38° ENE 23:35:38 40° ENE 23:41:00 10° SE
Cosmos 2278 Rocket 3.8 23:31:29 10° S 23:36:07 25° SE 23:38:32 19° E
Cosmos 2219 Rocket 2.5 23:36:24 41° NE 23:37:10 44° ENE 23:42:34 10° SE
IRAS Rocket 4.1 23:31:46 10° SSE 23:37:26 76° ENE 23:39:48 36° N
Cosmos 2181 Rocket 4.4 23:31:50 10° S 23:37:52 48° ESE 23:39:48 37° ENE
SL-08 RB Rocket 4.5 23:35:26 10° S 23:39:51 51° WSW 23:42:46 20° NW
IGS 5A 4.5 23:38:02 10° SSE 23:41:15 32° ESE 23:41:15 32° ESE
SeaSat 1 2.6 23:38:46 10° SE 23:43:38 51° ENE 23:43:59 50° NE
Gbstr 26 Del rocket 4.3 23:41:47 10° SW 23:45:21 30° SSE 23:46:54 22° ESE
BREEZE-M DEB (TANK) 4.4 23:41:09 10° W 23:46:57 37° SSW 23:49:18 12° SE
Cosmos 2237 Rocket 3.5 23:51:01 23° E 23:51:01 23° E 23:54:41 10° SE
Cosmos 1340 Rocket 3.2 23:50:56 52° ESE 23:50:56 52° ESE 23:54:24 10° SSE
Cosmos 1818 3.5 23:47:57 24° NNW 23:51:20 88° WSW 23:56:45 10° SSE
